weather.gov     
National Weather Service

Regional Weather Roundup
NWS Homepage
This page is being discontinued on March 12, 2014.
The same data is available at this site. Please update your bookmarks.
Thank you, and we apologize for the inconvenience.
Please send an email to SR-SRH.Webmaster@noaa.gov with any concerns.


Current Version
Previous Version:    01  02  03  04  05  06  07  08  09  10  11  12  13  14  15  16  17  18  19  20  21  22  23  24  25  26  27  28  29  30  
   31  32  33  34  35  36  37  38  39  40  41  42  43  44  45  46  47  48  49  50  51  52  53  
[Printable]
384
ASUS43 KLSX 250007
RWRMO

WEATHER SUMMARY FOR MISSOURI
NATIONAL WEATHER SERVICE SPRINGFIELD MO
700 PM CDT FRI OCT 24 2014

NOTE: "FAIR" INDICATES FEW OR NO CLOUDS BELOW 12,000 FEET WITH NO
       SIGNIFICANT WEATHER AND/OR OBSTRUCTIONS TO VISIBILITY.
       CURRENT SKY AND/OR WEATHER CONDITIONS ARE NOT AVAILABLE FOR
       CHILLICOTHE AND FARMINGTON.

MOZ001>031-035>038-043-044-053-054-250100-
...NORTHERN AND WESTERN MISSOURI...

CITY           SKY/WX    TMP DP  RH WIND       PRES   REMARKS
KANSAS CTY INT MOCLDY    70  62  76 S12       29.93S
6HR MIN TEMP:  69; 6HR MAX TEMP:  76;

KANSAS C DTWN  MOCLDY    73  62  68 SW9       29.93S
6HR MIN TEMP:  73; 6HR MAX TEMP:  77;

LEE`S SUMMIT   MOCLDY    72  61  68 SW9       29.95S
6HR MIN TEMP:  70; 6HR MAX TEMP:  76;

ST JOSEPH      MOCLDY    70  63  78 S5        29.92R
6HR MIN TEMP:  69; 6HR MAX TEMP:  78;

CHILLICOTHE      N/A     67  62  84 CALM      29.94R
6HR MIN TEMP:  64; 6HR MAX TEMP:  75;

KIRKSVILLE     MOCLDY    65  60  84 S7        29.94R
6HR MIN TEMP:  62; 6HR MAX TEMP:  72;


$$
MOZ066>068-077>081-088>096-101>105-250100-
...SOUTHWEST MISSOURI...

CITY           SKY/WX    TMP DP  RH WIND       PRES   REMARKS
SPRINGFIELD    PTCLDY    64  59  83 S7        30.04F
6HR MIN TEMP:  64; 6HR MAX TEMP:  76;

JOPLIN         PTCLDY    66  60  81 S8        30.04S
6HR MIN TEMP:  66; 6HR MAX TEMP:  75;


$$
MOZ032>034-039>042-045>050-055>058-069>072-250100-
...CENTRAL MISSOURI...

CITY           SKY/WX    TMP DP  RH WIND       PRES   REMARKS
COLUMBIA       MOCLDY    68  59  73 S8        29.99S
6HR MIN TEMP:  67; 6HR MAX TEMP:  73;

JEFFERSON CITY MOCLDY    69  59  70 E6        29.98S
6HR MIN TEMP:  69; 6HR MAX TEMP:  76;

ROLLA          MOCLDY    64  58  80 S8        30.01S
6HR MIN TEMP:  64; 6HR MAX TEMP:  71;

SEDALIA        MOCLDY    70  61  73 S7        29.98F
6HR MIN TEMP:  70; 6HR MAX TEMP:  75;

WHITEMAN AFB   PTCLDY    67  61  80 SW10      29.96S
OSAGE BEACH    MOCLDY    70  57  64 S7        30.01S

$$
MOZ051-052-059>065-250100-
...EAST CENTRAL MISSOURI...

CITY           SKY/WX    TMP DP  RH WIND       PRES   REMARKS
ST LOUIS INTL  MOCLDY    70  49  47 S5        30.00S
6HR MIN TEMP:  70; 6HR MAX TEMP:  75;

SPIRIT OF STL  PTCLDY    60  52  74 S3        29.99S
6HR MIN TEMP:  60; 6HR MAX TEMP:  74;

ST CHARLES     PTCLDY    64  49  57 CALM      29.99R
6HR MIN TEMP:  63; 6HR MAX TEMP:  73;


$$
MOZ072>076-082>087-097>100-106>115-250100-
...SOUTH CENTRAL AND SOUTHEAST MISSOURI...

CITY           SKY/WX    TMP DP  RH WIND       PRES   REMARKS
CAPE GIRARDEAU PTCLDY    59  52  77 S5        30.05S
6HR MIN TEMP:  59; 6HR MAX TEMP:  73;

FARMINGTON     PTCLDY    64  50  59 S5        30.06R
6HR MIN TEMP:  64; 6HR MAX TEMP:  73;

POPLAR BLUFF   PTCLDY    62  52  69 S3        30.05R
6HR MIN TEMP:  62; 6HR MAX TEMP:  72;

WEST PLAINS    PTCLDY    65  56  72 S5        30.07F
6HR MIN TEMP:  63; 6HR MAX TEMP:  73;


$$




U.S. Dept. of Commerce
NOAA National Weather Service
1325 East West Highway
Silver Spring, MD 20910
E-mail: w-nws.webmaster@noaa.gov
Page last modified: May 16, 2007
NATIONAL WEATHER SERVICE: for Safety, for Work, for Fun - FOR LIFE